CARBONITE 1 (CBNT-1)

Last updated on Mon Jul 07 2025 00:02:28 GMT+0000 (Coordinated Universal Time)

1 40718U 15032D 25187.60207327 .00001291 00000+0 16929-3 0 9993 2 40718 97.6439 15.7434 0014642 354.1153 5.9886 14.81857948538134
UTC large
Height (km)
Speed (km/s)
/
Latitude / Longitude
Inclination (degrees)
Orbital Period (minutes)
Azimuth
Elevation
Range (km)
Doppler Factor

Next 0 passes for location: London (51.5072 / 0.1276)

Sorry there are no passes over London.